Back to catalog

STARLINK-4204

AliveCommunicationsVLEO
NORAD 52854·PAYLOAD·🇺🇸 United States

Launched Jun 17, 2022 from Cape Canaveral Space Force Station

Loading…

Next Passes (next 24 hours)

TLE

FreshSource: CelesTrak SupGP

Epoch: Sep 14, 2026, 13:59 UTC

1 52854C 22062AA  26257.58312500 -.00027486  00000+0 -78648-3 0  2573
2 52854  53.1579 245.0527 0001280  81.8613  70.7917 15.35408453    19

Track STARLINK-4204 in real time with AllMySat

Download on the App Store